Regional Weather Roundup
Issued by NWS

Home | Current Version | Previous Version | Text Only | Print | Product List | Glossary On
Versions: 1 2 3 4 5 6 7 8 9 10 11 12 13 14 15 16 17 18 19 20 21 22 23 24 25 26 27 28 29 30 31 32 33 34 35 36 37 38 39 40 41 42 43 44 45 46 47 48 49 50
000
ASUS43 KMKX 082100
RWRWI

WISCONSIN REGIONAL WEATHER ROUNDUP
NATIONAL WEATHER SERVICE MILWAUKEE/SULLIVAN WI
300 PM CST MON FEB 08 2016

NOTE: "FAIR" INDICATES FEW OR NO CLOUDS BELOW 12,000 FEET WITH NO
SIGNIFICANT WEATHER AND/OR OBSTRUCTIONS TO VISIBILITY.

WIZ001-002-006>008-014>016-023>028-082200-
NORTHWEST WISCONSIN

CITY           SKY/WX    TMP DP  RH WIND       PRES   REMARKS
SUPERIOR ARPT  LGT SNOW  13   5  69 NW18      29.93R WCI  -4
ASHLAND        CLOUDY    16   8  71 NW10      29.86R WCI   4
HAYWARD        CLOUDY    14   6  70 N8        29.84R WCI   3
SIREN          CLOUDY    15   4  61 NW16      29.90R WCI  -1
CUMBERLAND     CLOUDY    14   5  67 NW16      29.85R WCI  -2
RICE LAKE      FLURRIES  15   6  66 NW12      29.87R WCI   2
CHETEK         FLURRIES  15   6  70 NW7       29.85R WCI   5
LADYSMITH      FLURRIES  16   9  73 NW15      29.82R WCI   1
EAU CLAIRE     NOT AVBL
MENOMONIE      FLURRIES  17   5  60 W14G22    29.87R WCI   3
NEW RICHMOND   LGT SNOW  14   6  70 NW17G25   29.91R WCI  -3
OSCEOLA        CLOUDY    16   5  62 NW17G25   29.95R WCI   0
$$

WIZ003>005-009-010-017-018-082200-
NORTH CENTRAL WISCONSIN

CITY           SKY/WX    TMP DP  RH WIND       PRES   REMARKS
MANITOWISH WTR LGT SNOW  15  11  83 NW10G17   29.72R WCI   3
ARBOR VITAE    LGT SNOW  19  13  77 NW14      29.71R WCI   6
WOODRUFF       LGT SNOW  19  13  77 NW14      29.71R WCI   6
RHINELANDER    LGT SNOW  19  12  74 NW10      29.69R WCI   7
EAGLE RIVER    LGT SNOW  19  14  79 N8        29.68R VSB 1   WCI   9
LAND O LAKES   LGT SNOW  18  13  82 N10       29.69S WCI   6
PHILLIPS       LGT SNOW  16  11  79 NW10      29.74R WCI   4
TOMAHAWK       FLURRIES  19  12  72 NW10G16   29.71S WCI   8
MEDFORD        FLURRIES  18  11  75 NW10      29.72R WCI   6
MERRILL        CLOUDY    24  14  66 N14       29.71R WCI  11
$$

WIZ029-030-035-036-043>047-082200-
CENTRAL WISCONSIN

CITY           SKY/WX    TMP DP  RH WIND       PRES   REMARKS
WAUSAU         CLOUDY    26  14  60 NW14      29.69R WCI  14
MOSINEE        NOT AVBL
MARSHFIELD     CLOUDY    21  10  62 NW20      29.72R WCI   6
STEVENS POINT  FLURRIES  24  16  71 W9        29.70S WCI  14
WAUPACA        CLOUDY    31  20  63 NW14G21   29.68S WCI  20
WAUTOMA        NOT AVBL
WISC RAPIDS    CLOUDY    20  11  68 NW17      29.75R WCI   5
CAMP DOUGLAS   NOT AVBL
$$

WIZ011>013-019>022-031-037>040-048>050-082200-
NORTHEAST WISCONSIN

CITY           SKY/WX    TMP DP  RH WIND       PRES   REMARKS
ANTIGO         CLOUDY    23  17  77 N14       29.65S WCI  11
SHAWANO        LGT SNOW  29  22  75 NW9       29.68R WCI  21
OCONTO         CLOUDY    26  25  97 N8        29.67R WCI  17
STURGEON BAY   CLOUDY    28  21  74 NW17      29.67R WCI  16
GREEN BAY      LGT SNOW  29  25  85 N13       29.67R VSB 3/4 WCI  19
MANITOWOC      NOT AVBL
APPLETON       FLURRIES  28  19  69 NW15      29.65R WCI  17
CLINTONVILLE   LGT SNOW  28  21  74 NW13G18   29.68R WCI  18
OSHKOSH        CLOUDY    29  23  78 NW12      29.67R WCI  19
$$

WIZ032>034-041-042-053>061-082200-
SOUTHWEST WISCONSIN

CITY           SKY/WX    TMP DP  RH WIND       PRES   REMARKS
LA CROSSE      CLOUDY    18   8  65 NW17      29.85R WCI   3
SPARTA         CLOUDY    20  11  67 NW16      29.81R WCI   6
VIROQUA        CLOUDY    19  10  69 NW16      29.77R WCI   4
BOSCOBEL       CLOUDY    23  11  60 NW12G21   29.81R WCI  12
PRAIRIE DU CHI CLOUDY    21   9  59 NW14G22   29.82R WCI   8
PLATTEVILLE    CLOUDY    22  15  74 NW16      29.76R WCI   8
$$

WIZ056-057-062-063-064-067-068-082200-
SOUTH CENTRAL WISCONSIN

CITY           SKY/WX    TMP DP  RH WIND       PRES   REMARKS
REEDSBURG      CLOUDY    21  13  72 NW14      29.74S WCI   8
BARABOO/DELLS  CLOUDY    21  13  71 NW14      29.73R WCI   8
LONE ROCK      CLOUDY    22  12  65 NW14G24   29.78R WCI   9
MINERAL POINT  CLOUDY    23  14  68 NW15      29.73S WCI  10
MADISON        CLOUDY    22  14  71 NW14G22   29.72R WCI   9
MIDDLETON      CLOUDY    24  16  73 NW15G21   29.72S WCI  11
WATERTOWN      CLOUDY    25  19  77 NW14      29.68R WCI  14
MONROE         CLOUDY    23  18  80 NW15G21   29.71R WCI  10
JANESVILLE     CLOUDY    27  18  69 MISG      29.70S
$$

WIZ051-052-058>065-066-070>072-082200-
SOUTHEAST WISCONSIN

CITY           SKY/WX    TMP DP  RH WIND       PRES   REMARKS
MILWAUKEE      CLOUDY    26  20  77 NW15      29.66R WCI  14
WAUKESHA       CLOUDY    23  19  86 W15       29.67R WCI  10
MILWAUKEE/TIMM CLOUDY    27  18  69 W16       29.67R WCI  14
RACINE         CLOUDY    26  20  77 W13G23    29.67R WCI  15
BURLINGTON     CLOUDY    24  19  78 W12       29.68R WCI  13
KENOSHA        CLOUDY    27  20  75 W14       29.67R WCI  16
FOND DU LAC    CLOUDY    27  20  75 W13       29.67R WCI  16
SHEBOYGAN      LGT SNOW  28  23  81 NW13      29.64R WCI  17
WEST BEND      CLOUDY    28  21  74 NW10G18   29.65R WCI  19
JUNEAU         CLOUDY    25  19  77 NW9G16    29.69R WCI  15
$$

LSZ147-162-082200-
LAKE SUPERIOR

STATION/POSITION TIME  TEMP    WIND        PRES    WAVE
                       AIR SEA DIR/SP/G            HT/PER
                 (UTC) (F)     (DEG/KT/KT) (MB)    (FT/S)
DEVILS ISLAND    2000   15     320/ 18/ 21 1011.9R
PORT WING        2000   17     310/ 15/ 19 1011.9
SAXON HARBOR     2040   18                 1010.5R
$$

LMZ867-665-643>646-082200-
LAKE MICHIGAN

STATION/POSITION TIME  TEMP    WIND        PRES    WAVE
                       AIR SEA DIR/SP/G            HT/PER
                 (UTC) (F)     (DEG/KT/KT) (MB)    (FT/S)
CHAMBERS ISLAND  2000   28     320/ 17/ 19 1004.4R
NORTHPORT PIER   2000   28     340/ 18/ 23 1004.1S
ALGOMA LAKESHORE 1911          360/ 14/ 20   N/A
KEWAUNEE LAKESHO 2000   31     360/  9/ 14 1002.6R
SHEBOYGAN LAKESH 2000   28     280/ 17/ 19 1004.2R
PORT WASHINGTON  2000   28     300/ 11/ 21 1004.7R
MILWAUKEE LAKESH 2010   26     290/ 16/ 18   N/A
KENOSHA   LAKESH 2000   27     290/ 14/ 18 1004.1S
$$

TC  - TEMPERATURE IN CELSIUS
VSB - VISIBILITY IN STATUTE MILES
WCI - WIND CHILL INDEX
HX  - HEAT INDEX




USA.gov is the U.S. government's official web portal to all federal, state and local government web resources and services.